Voltar ao catálogo

SCOUT B-1 DEB

AtivoLEO
NORAD 8868·DEBRIS·🇺🇸 United States

Lançado May 22, 1976 de Vandenberg Space Force Base

Loading…

Próximas Passagens (próximas 24 horas)

TLE

AtualizadoSource: Space-Track

Época: Sep 14, 2026, 09:04 UTC

1 08868U 76047D   26257.37804744  .00000130  00000-0  16721-3 0  9997
2 08868 100.0790  46.8845 0050113  43.7337 345.5614 13.81727603529867

Acompanhe SCOUT B-1 DEB em tempo real com AllMySat

Download on the App Store